Location: Boiro
(42.6475°N, 8.8834°W)
Time: 15:12:25
(UTC+01:00)

Vanguard 2 - Pass Details

Date: 01 December 2021
Orbit: 553 x 2936 km, 32.9° (Epoch: 21 January)

Event Time Altitude Azimuth Distance (km) Brightness Sun altitude
Rises 22:36:26 0° 263° (W) 5,177 12.3 -49.4°
Reaches altitude 10° 22:42:02 10° 241° (WSW) 4,671 11.8 -50.4°
Maximum altitude 22:48:04 14° 214° (SW) 4,747 11.6 -51.4°
Enters shadow 22:54:17 11° 191° (S) 5,378 11.7 -52.5°
Drops below altitude 10° 22:54:59 10° 188° (S) 5,474 - -52.6°
Sets 23:02:58 0° 168° (SSE) 6,732 - -54.0°
